| time (UTC) | temp C | wind direction | speed KPH | gust KPH | rain 1hr cm | rain 24hr cm | rain mn cm | humidity % | barometer mb |
| 20260505124555 | 10 | 93 | 0.0 | 3.2 | 0.00 | 0.00 | 0.00 | 88 | 1009.5 |
| 20260505123055 | 10 | 265 | 1.6 | 3.2 | 0.00 | 0.00 | 0.00 | 88 | 1009.4 |
| 20260505121620 | 10 | 51 | 1.6 | 3.2 | 0.00 | 0.00 | 0.00 | 88 | 1009.3 |
| 20260505120055 | 10 | 76 | 0.0 | 3.2 | 0.00 | 0.00 | 0.00 | 87 | 1009.1 |
| 20260505114555 | 11 | 34 | 0.0 | 3.2 | 0.00 | 0.00 | 0.00 | 86 | 1009.0 |
| 20260505113058 | 11 | 0 | 0.0 | 3.2 | 0.00 | 0.00 | 0.00 | 85 | 1008.9 |
| 20260505111557 | 11 | 51 | 0.0 | 3.2 | 0.00 | 0.00 | 0.00 | 84 | 1008.7 |
| 20260505101557 | 12 | 61 | 1.6 | 6.4 | 0.00 | 0.00 | 0.00 | 84 | 1008.0 |
| 20260505100058 | 12 | 61 | 1.6 | 6.4 | 0.00 | 0.00 | 0.00 | 85 | 1007.9 |
| 20260505094552 | 12 | 0 | 0.0 | 3.2 | 0.00 | 0.00 | 0.00 | 85 | 1007.8 |
| 20260505093054 | 12 | 239 | 0.0 | 3.2 | 0.00 | 0.00 | 0.00 | 84 | 1007.9 |
| 20260505091550 | 12 | 47 | 1.6 | 4.8 | 0.00 | 0.00 | 0.00 | 85 | 1007.7 |
| 20260505090104 | 12 | 61 | 1.6 | 3.2 | 0.00 | 0.00 | 0.00 | 85 | 1007.7 |
| 20260505084554 | 12 | 0 | 0.0 | 3.2 | 0.00 | 0.00 | 0.00 | 84 | 1007.5 |
| 20260505083100 | 12 | 34 | 1.6 | 4.8 | 0.00 | 0.00 | 0.00 | 84 | 1007.5 |
| 20260505081557 | 13 | 68 | 1.6 | 4.8 | 0.00 | 0.00 | 0.00 | 83 | 1007.4 |
| 20260505080055 | 13 | 0 | 0.0 | 3.2 | 0.00 | 0.00 | 0.00 | 81 | 1007.4 |
| 20260505074557 | 13 | 34 | 1.6 | 3.2 | 0.00 | 0.00 | 0.00 | 81 | 1007.2 |
| 20260505073100 | 13 | 221 | 0.0 | 17.7 | 0.00 | 0.00 | 0.00 | 81 | 1007.3 |
| 20260505071557 | 13 | 0 | 0.0 | 3.2 | 0.00 | 0.00 | 0.00 | 81 | 1007.0 |
| 20260505070054 | 13 | 129 | 0.0 | 3.2 | 0.00 | 0.00 | 0.00 | 81 | 1006.6 |
| 20260505064556 | 13 | 0 | 0.0 | 3.2 | 0.00 | 0.00 | 0.00 | 80 | 1006.5 |
| 20260505063053 | 14 | 178 | 0.0 | 3.2 | 0.00 | 0.00 | 0.00 | 79 | 1006.5 |
| 20260505061602 | 14 | 51 | 1.6 | 3.2 | 0.00 | 0.00 | 0.00 | 78 | 1006.4 |
| 20260505060058 | 15 | 232 | 0.0 | 1.6 | 0.00 | 0.00 | 0.00 | 76 | 1006.1 |
| 20260505054557 | 15 | 0 | 0.0 | 3.2 | 0.00 | 0.00 | 0.00 | 75 | 1006.1 |
| 20260505053106 | 16 | 221 | 0.0 | 3.2 | 0.00 | 0.00 | 0.00 | 74 | 1006.1 |
| 20260505051556 | 16 | 51 | 0.0 | 3.2 | 0.00 | 0.00 | 0.00 | 72 | 1006.2 |
| 20260505041558 | 18 | 59 | 4.8 | 9.7 | 0.00 | 0.00 | 0.00 | 68 | 1005.8 |
| 20260505034559 | 20 | 57 | 3.2 | 6.4 | 0.00 | 0.00 | 0.00 | 58 | 1005.5 |
| 20260505033112 | 21 | 108 | 3.2 | 6.4 | 0.00 | 0.00 | 0.00 | 56 | 1005.3 |
| 20260505031553 | 22 | 76 | 1.6 | 6.4 | 0.00 | 0.00 | 0.00 | 52 | 1005.2 |
| 20260505030055 | 24 | 70 | 1.6 | 9.7 | 0.00 | 0.00 | 0.00 | 47 | 1005.1 |
| 20260505024557 | 25 | 171 | 3.2 | 4.8 | 0.00 | 0.00 | 0.00 | 47 | 1005.0 |
| 20260505023104 | 26 | 76 | 1.6 | 4.8 | 0.00 | 0.00 | 0.00 | 45 | 1005.0 |
| 20260505021556 | 27 | 67 | 1.6 | 6.4 | 0.00 | 0.00 | 0.00 | 44 | 1005.0 |
| 20260505020053 | 28 | 193 | 0.0 | 4.8 | 0.00 | 0.00 | 0.00 | 37 | 1005.0 |
| 20260505014552 | 28 | 78 | 1.6 | 8.0 | 0.00 | 0.00 | 0.00 | 34 | 1005.1 |
| 20260505013054 | 29 | 158 | 1.6 | 6.4 | 0.00 | 0.00 | 0.00 | 30 | 1005.3 |
| 20260505011601 | 29 | 165 | 1.6 | 11.3 | 0.00 | 0.00 | 0.00 | 29 | 1005.3 |
| 20260505004558 | 28 | 93 | 1.6 | 11.3 | 0.00 | 0.00 | 0.00 | 30 | 1005.5 |
| 20260505003050 | 29 | 161 | 1.6 | 11.3 | 0.00 | 0.00 | 0.00 | 29 | 1005.6 |
| 20260505001555 | 29 | 162 | 3.2 | 11.3 | 0.00 | 0.00 | 0.00 | 29 | 1005.7 |
| 20260505000056 | 29 | 120 | 4.8 | 9.7 | 0.00 | 0.00 | 0.00 | 28 | 1005.8 |
| 20260504234616 | 28 | 0 | 1.6 | 11.3 | 0.00 | 0.00 | 0.00 | 28 | 1005.8 |
| 20260504233051 | 29 | 64 | 4.8 | 14.5 | 0.00 | 0.00 | 0.00 | 29 | 1005.9 |
| 20260504231559 | 28 | 190 | 4.8 | 14.5 | 0.00 | 0.00 | 0.00 | 31 | 1005.9 |
| 20260504230057 | 28 | 247 | 4.8 | 11.3 | 0.00 | 0.00 | 0.00 | 30 | 1006.2 |
| 20260504224604 | 28 | 151 | 4.8 | 12.9 | 0.00 | 0.00 | 0.00 | 30 | 1006.3 |
| 20260504223054 | 28 | 244 | 6.4 | 16.1 | 0.00 | 0.00 | 0.00 | 36 | 1006.5 |
| 20260504221603 | 27 | 164 | 6.4 | 12.9 | 0.00 | 0.00 | 0.00 | 30 | 1006.7 |
| 20260504220058 | 27 | 147 | 6.4 | 12.9 | 0.00 | 0.00 | 0.00 | 30 | 1006.9 |
| 20260504214556 | 27 | 157 | 6.4 | 14.5 | 0.00 | 0.00 | 0.00 | 33 | 1007.1 |
| 20260504213102 | 27 | 191 | 6.4 | 12.9 | 0.00 | 0.00 | 0.00 | 34 | 1007.2 |
| 20260504211550 | 27 | 250 | 6.4 | 16.1 | 0.00 | 0.00 | 0.00 | 35 | 1007.2 |
| 20260504204637 | 26 | 198 | 4.8 | 12.9 | 0.00 | 0.00 | 0.00 | 33 | 1007.7 |
| 20260504203059 | 26 | 325 | 4.8 | 12.9 | 0.00 | 0.00 | 0.00 | 32 | 1007.9 |
| 20260504201559 | 26 | 226 | 8.0 | 17.7 | 0.00 | 0.00 | 0.00 | 32 | 1008.0 |
| 20260504200057 | 25 | 279 | 6.4 | 16.1 | 0.00 | 0.00 | 0.00 | 38 | 1008.0 |
| 20260504194556 | 25 | 182 | 6.4 | 14.5 | 0.00 | 0.00 | 0.00 | 41 | 1008.1 |
| 20260504193053 | 25 | 227 | 8.0 | 19.3 | 0.00 | 0.00 | 0.00 | 45 | 1008.2 |
| 20260504191555 | 24 | 236 | 9.7 | 17.7 | 0.00 | 0.00 | 0.00 | 42 | 1008.2 |
| 20260504190059 | 24 | 284 | 11.3 | 17.7 | 0.00 | 0.00 | 0.00 | 45 | 1008.3 |
| 20260504184604 | 23 | 229 | 4.8 | 17.7 | 0.00 | 0.00 | 0.00 | 41 | 1008.3 |
| 20260504183058 | 23 | 219 | 8.0 | 16.1 | 0.00 | 0.00 | 0.00 | 44 | 1008.4 |
| 20260504181552 | 23 | 235 | 4.8 | 17.7 | 0.00 | 0.00 | 0.00 | 39 | 1008.6 |
| 20260504180055 | 22 | 261 | 6.4 | 16.1 | 0.00 | 0.00 | 0.00 | 43 | 1008.7 |
| 20260504174552 | 22 | 241 | 9.7 | 16.1 | 0.00 | 0.00 | 0.00 | 47 | 1008.7 |
| 20260504173050 | 22 | 214 | 8.0 | 16.1 | 0.00 | 0.00 | 0.00 | 49 | 1008.7 |
| 20260504171553 | 21 | 255 | 8.0 | 14.5 | 0.00 | 0.00 | 0.00 | 53 | 1008.6 |
| 20260504160109 | 18 | 246 | 1.6 | 6.4 | 0.00 | 0.00 | 0.00 | 62 | 1008.9 |